Regional Weather Roundup
Issued by NWS

Home | Current Version | Previous Version | Text Only | Print | Product List | Glossary On
Versions: 1 2 3 4 5 6 7 8 9 10 11 12 13 14 15 16 17 18 19 20 21 22 23 24 25 26 27 28 29 30 31 32 33 34 35 36 37 38 39 40 41 42 43 44 45 46 47 48 49 50
000
ASUS46 KSEW 301010
RWRWA

WASHINGTON REGIONAL WEATHER ROUNDUP
NATIONAL WEATHER SERVICE SEATTLE WA
300 AM PDT TUE JUN 30 2015

NOTE:"FAIR" INDICATES FEW OR NO CLOUDS BELOW 12,000 FEET WITH NO
SIGNIFICANT WEATHER AND/OR OBSTRUCTIONS TO VISIBILITY.

WAZ505-507>509-301100-
SEATTLE, TACOMA, EVERETT, AND VICINITY

CITY           SKY/WX    TMP DP  RH WIND       PRES   REMARKS
EVERETT        PTCLDY    63  55  75 CALM      30.09R
BOEING FIELD   CLEAR     65  57  75 S5        30.08R
RENTON         PTCLDY    64  58  80 S7        30.08R
SEATAC AIRPORT CLEAR     61  57  87 SW3       30.09S
JBLM-MCCHORD   CLEAR     60  59  96 W3        30.09R
PUYALLUP       FAIR      59  59 100 CALM      30.10R
BREMERTON      CLOUDY    59  57  94 SW5       30.12R
JBLM-FT LEWIS  CLEAR     60  58  94 SW3       30.08S
TACOMA NARROWS CLOUDY    60  57  89 SW3       30.10R
$$

WAZ001-503-506-510-514-515-301100-
NORTH INTERIOR

CITY           SKY/WX    TMP DP  RH WIND       PRES   REMARKS
BELLINGHAM     CLEAR     62  56  80 S12       30.03S
FRIDAY HARBOR  CLEAR     54  52  93 CALM      30.05S
EASTSOUND      CLEAR     59  54  82 MISG      30.02R
PORT ANGELES   CLOUDY    57  55  93 W10       30.09R
PORT TOWNSEND  FAIR      57  55  94 CALM      30.07R
NAS WHIDBEY    PTCLDY    59  55  87 SW13G21   30.11R
ARLINGTON      CLEAR     61  52  72 NW9       30.08S
BURLINGTON     CLEAR     57  55  94 S6        30.07R
$$

WAZ020-022-039-040-504-511-512-301100-
SOUTHWEST INTERIOR

CITY           SKY/WX    TMP DP  RH WIND       PRES   REMARKS
SHELTON        CLOUDY    58  57  97 SW10      30.07S
OLYMPIA        CLEAR     57  55  93 CALM      30.09S
CHEHALIS       CLOUDY    61  59  94 CALM      30.10S
KELSO          CLOUDY    63  55  77 N3        30.13R
VANCOUVER      CLEAR     63  56  78 N3        30.08R
SCAPPOOSE, OR  CLEAR     57  55  93 E3        30.07R
PORTLAND, OR   CLEAR     63  58  83 CALM      30.08R
$$

WAZ021-516-517-301100-
WASHINGTON COAST

CITY           SKY/WX    TMP DP  RH WIND       PRES   REMARKS
FORKS          CLOUDY    57  57 100 CALM      30.11S FOG
HOQUIAM        CLOUDY    58  58 100 SW7       30.11S FOG
ASTORIA, OR    CLOUDY    59  58  96 SW3       30.11S FOG
$$

WAZ019-023-024-040-518-519-301100-
CASCADE MOUNTAINS AND COLUMBIA GORGE

CITY           SKY/WX    TMP DP  RH WIND       PRES   REMARKS
TROUTDALE, OR  CLEAR     62  57  83 W3        30.06S
THE DALLES, OR CLEAR     74  59  59 NW15      29.96R
$$

WAZ026-027-041>044-520-521-301100-
EAST SLOPES

CITY           SKY/WX    TMP DP  RH WIND       PRES   REMARKS
OMAK           CLEAR     71  61  70 NW9       30.00R
WENATCHEE      CLEAR     78  55  44 W10       29.99S
ELLENSBURG     CLEAR     72  56  57 NW14      30.03R
YAKIMA         CLEAR     75  54  47 W8        29.99S
$$

WAZ028-034-035-301100-
COLUMBIA BASIN

CITY           SKY/WX    TMP DP  RH WIND       PRES   REMARKS
EPHRATA        CLEAR     77  55  46 N9        29.96R
MOSES LAKE     CLEAR     74  54  49 NW8       29.97R
PASCO          CLEAR     76  57  51 CALM      29.94R
HERMISTON, OR  CLEAR     77  57  50 SW6       29.96R
$$

WAZ036>038-301100-
NORTHEAST WASHINGTON

CITY           SKY/WX    TMP DP  RH WIND       PRES   REMARKS
SPOKANE GEIGER PTCLDY    71  56  58 NW3       30.01R
SPOKANE FELTS  CLEAR     70  58  65 CALM      29.99R
FAIRCHILD AFB  CLEAR     67  55  66 N8        30.01R
COEURDALENE,ID CLEAR     68  57  68 N7        29.99S
DEER PARK      CLEAR     67  59  75 N6        30.01R
$$

WAZ029>033-301100-
SOUTHEAST WASHINGTON

CITY           SKY/WX    TMP DP  RH WIND       PRES   REMARKS
PULLMAN        CLEAR     60  55  83 CALM      30.02S
LEWISTON, ID   CLEAR     76  55  48 S7        29.94S
WALLA WALLA    CLEAR     78  56  46 S12       29.98R
PENDLETON, OR  CLEAR     72  55  55 CALM      30.00R
$$



USA.gov is the U.S. government's official web portal to all federal, state and local government web resources and services.